Le nostre stazioni meteo in Italia

Pubblicità
Il mio iltempo24.it
Antwerpen, Belgio (6450): Temperatura & dewpoint: 31.05.2020 10:00:00 - 06.06.2020 10:00:00 (CEST)Antwerpen, Belgio (6450): velocità del vento & gusts: 31.05.2020 10:00:00 - 06.06.2020 10:00:00 (CEST)Antwerpen, Belgio (6450): direzione del vento: 31.05.2020 10:00:00 - 06.06.2020 10:00:00 (CEST)Antwerpen, Belgio (6450): reduced air pressure: 31.05.2020 10:00:00 - 06.06.2020 10:00:00 (CEST)Antwerpen, Belgio (6450): visibility: 31.05.2020 10:00:00 - 06.06.2020 10:00:00 (CEST)
Data & Tempo tt [°C] td [°C] ff [km/h] ff [kn] fx [km/h] fx [kn] dd ppp [hPa] vv [km]
06.06.2020 10:00:00 12,3 6,8 22 12 40 21 SO 999,2 10
06.06.2020 09:00:00 10,8 8,3 16 9 25 14 SO 999,1 10
06.06.2020 08:00:00 9,5 7,9 13 7 - - SO 999,0 10
06.06.2020 07:00:00 8,9 7,5 15 8 22 12 SSO 998,7 10
06.06.2020 06:00:00 8,5 6,9 13 7 18 10 SSO 998,2 10
06.06.2020 05:00:00 8,3 6,8 11 6 - - SSO 998,1 10
06.06.2020 04:00:00 8,8 6,6 9 5 18 10 S 998,4 10
06.06.2020 03:00:00 8,8 6,3 13 7 22 12 SO 998,3 10
06.06.2020 02:00:00 9,1 5,6 15 8 - - SO 998,3 10
06.06.2020 01:00:00 9,3 5,9 15 8 25 14 SSO 998,2 10
06.06.2020 00:00:00 9,0 6,5 13 7 22 12 SSO 998,4 10
05.06.2020 23:00:00 8,8 7,0 11 6 - - SO 998,3 10
05.06.2020 22:00:00 9,5 7,8 8 4 22 12 SO 998,0 10
05.06.2020 21:00:00 9,8 7,0 15 8 32 18 O 997,8 10
05.06.2020 20:00:00 11,5 6,5 14 8 - - O 997,2 40
05.06.2020 19:00:00 11,4 7,2 16 9 50 27 ONO 996,9 10
05.06.2020 18:00:00 10,2 7,0 31 17 50 27 NO 996,5 10
05.06.2020 17:00:00 11,6 6,5 26 14 - - ONO 995,5 10
05.06.2020 16:00:00 11,3 7,5 28 15 58 31 ONO 994,6 10
05.06.2020 15:00:00 14,1 6,3 28 15 50 27 O 992,7 10
05.06.2020 14:00:00 13,8 7,3 26 14 - - O 992,5 10
05.06.2020 13:00:00 12,1 10,1 15 8 32 18 SSO 992,5 10
05.06.2020 12:00:00 9,3 8,1 21 11 50 27 O 993,2 3,0
05.06.2020 11:00:00 12,5 9,7 26 14 - - SSO 992,9 10
05.06.2020 10:00:00 13,2 8,8 22 12 40 21 SSO 993,7 10
05.06.2020 09:00:00 12,0 8,9 18 10 32 18 SSO 994,6 10
05.06.2020 08:00:00 11,7 8,6 15 8 - - SSO 995,4 10
05.06.2020 07:00:00 11,0 7,6 13 7 18 10 SSO 996,2 10
05.06.2020 06:00:00 10,3 7,8 8 4 14 8 S 997,1 10
05.06.2020 05:00:00 10,2 8,1 8 4 - - S 997,7 10
05.06.2020 04:00:00 10,4 7,7 9 5 14 8 SO 998,5 10
05.06.2020 03:00:00 10,4 7,9 9 5 14 8 SO 999,0 10
05.06.2020 02:00:00 9,8 7,9 8 4 - - SO 999,3 10
05.06.2020 01:00:00 10,4 7,4 15 8 25 14 O 999,8 10
05.06.2020 00:00:00 11,8 5,7 16 9 29 16 O 1000,0 10
04.06.2020 23:00:00 11,9 6,1 16 9 - - ONO 1000,1 10
04.06.2020 22:00:00 12,4 4,8 22 12 36 19 NO 999,8 10
04.06.2020 21:00:00 12,6 6,6 22 12 36 19 NO 999,5 10
04.06.2020 20:00:00 13,0 6,7 22 12 - - NO 999,2 10
04.06.2020 19:00:00 12,5 7,4 29 16 43 23 NO 999,0 10
04.06.2020 18:00:00 15,2 8,2 28 15 43 23 NO 998,6 10
04.06.2020 17:00:00 14,7 7,6 28 15 - - NO 998,8 10
04.06.2020 16:00:00 14,2 9,2 22 12 40 21 NNO 998,8 10
04.06.2020 15:00:00 14,0 9,4 24 13 43 23 NNO 998,8 10
04.06.2020 14:00:00 15,7 9,7 24 13 - - NO 998,8 10
04.06.2020 13:00:00 15,2 9,6 21 11 29 16 NO 998,8 10
04.06.2020 12:00:00 15,3 9,6 18 10 29 16 NNO 998,9 10
04.06.2020 11:00:00 14,3 10,9 9 5 - - N 999,0 10
04.06.2020 10:00:00 13,2 10,2 21 11 29 16 NNO 999,3 10
04.06.2020 09:00:00 12,9 10,9 18 10 29 16 NNO 999,4 7
04.06.2020 08:00:00 14,1 10,0 18 10 - - NNO 999,1 10
04.06.2020 07:00:00 14,1 10,6 15 8 25 14 N 999,4 10
04.06.2020 06:00:00 14,1 10,8 13 7 22 12 NNO 999,8 10
04.06.2020 05:00:00 14,0 11,0 11 6 - - N 1000,0 10
04.06.2020 04:00:00 14,1 11,1 13 7 22 12 N 1000,4 10
04.06.2020 03:00:00 14,3 11,3 15 8 25 14 NNO 1001,0 10
04.06.2020 02:00:00 14,3 11,5 16 9 - - N 1001,3 10
04.06.2020 01:00:00 14,4 11,6 18 10 25 14 NNO 1002,0 10
04.06.2020 00:00:00 14,6 11,5 16 9 29 16 NNO 1002,7 10
03.06.2020 23:00:00 15,7 12,5 15 8 - - NNO 1002,9 10
03.06.2020 22:00:00 17,1 10,6 16 9 25 14 NNO 1003,1 10
03.06.2020 21:00:00 18,3 9,1 22 12 29 16 NO 1003,2 40
03.06.2020 20:00:00 19,3 10,2 22 12 - - NO 1003,4 10
03.06.2020 19:00:00 19,8 11,0 22 12 32 18 NO 1003,4 10
03.06.2020 18:00:00 20,8 9,1 15 8 29 16 NNO 1003,8 10
03.06.2020 17:00:00 20,9 9,4 18 10 - - ONO 1004,3 10
03.06.2020 16:00:00 20,9 8,8 16 9 25 14 ONO 1004,8 10
03.06.2020 15:00:00 21,8 9,3 16 9 25 14 NNO 1005,3 10
03.06.2020 14:00:00 21,2 9,0 11 6 - - ONO 1005,9 10
03.06.2020 13:00:00 20,1 9,1 14 8 25 14 NO 1006,6 25
03.06.2020 12:00:00 19,6 9,8 13 7 25 14 ONO 1007,2 10
03.06.2020 11:00:00 18,1 10,5 13 7 - - OSO 1007,6 10
03.06.2020 10:00:00 17,0 11,4 11 6 22 12 O 1007,9 10
03.06.2020 09:00:00 15,0 11,2 13 7 22 12 O 1008,2 8
03.06.2020 08:00:00 14,0 11,6 9 5 - - O 1008,6 4,5
03.06.2020 07:00:00 13,2 11,8 11 6 18 10 O 1008,9 2,7
03.06.2020 06:00:00 13,0 12,0 9 5 14 8 O 1009,1 2,7
03.06.2020 05:00:00 13,5 12,0 9 5 - - O 1009,5 3,6
03.06.2020 04:00:00 13,9 11,8 8 4 11 6 O 1010,2 6
03.06.2020 03:00:00 14,8 12,2 5 3 14 8 OSO 1010,8 9
03.06.2020 02:00:00 15,6 12,0 11 6 - - O 1011,5 10
03.06.2020 01:00:00 16,6 11,1 11 6 18 10 ONO 1012,0 10
03.06.2020 00:00:00 17,6 10,2 11 6 18 10 ONO 1012,8 10
02.06.2020 23:00:00 18,5 9,8 13 7 - - NO 1013,3 10
02.06.2020 22:00:00 19,5 10,3 8 4 29 16 NO 1013,5 10
02.06.2020 21:00:00 20,8 9,1 21 11 29 16 NO 1013,7 10
02.06.2020 20:00:00 22,5 7,1 22 12 - - NO 1014,0 10
02.06.2020 19:00:00 24,5 7,6 16 9 32 18 NO 1014,3 10
02.06.2020 18:00:00 24,8 6,8 24 13 36 19 NO 1014,8 10
02.06.2020 17:00:00 26,2 5,4 18 10 - - NNO 1015,2 10
02.06.2020 16:00:00 26,8 6,3 16 9 29 16 NNO 1015,8 10
02.06.2020 15:00:00 26,4 6,4 15 8 29 16 NO 1016,3 10
02.06.2020 14:00:00 26,5 6,7 11 6 - - NO 1016,8 10
02.06.2020 13:00:00 26,1 5,4 5 3 18 10 - 1017,4 10
02.06.2020 12:00:00 24,7 4,4 9 5 22 12 ONO 1017,9 10
02.06.2020 11:00:00 24,3 5,3 11 6 - - NNO 1018,3 10
02.06.2020 10:00:00 23,2 7,5 9 5 14 8 NNO 1018,6 10
02.06.2020 09:00:00 20,8 10,8 4 2 4 2 - 1018,8 35
02.06.2020 08:00:00 18,1 10,3 2 1 - - - 1018,9 10
02.06.2020 07:00:00 13,9 9,3 2 1 4 2 - 1019,2 10
02.06.2020 06:00:00 11,9 8,0 2 1 4 2 - 1019,0 10
02.06.2020 05:00:00 15,2 8,6 2 1 - - N 1019,0 10
02.06.2020 04:00:00 15,9 8,6 4 2 7 4 - 1019,3 10
02.06.2020 03:00:00 16,3 8,3 4 2 7 4 - 1019,6 10
02.06.2020 02:00:00 17,1 7,7 5 3 - - NNE 1020,1 10
02.06.2020 01:00:00 18,3 6,4 8 4 14 8 NNE 1020,2 10
02.06.2020 00:00:00 18,9 7,5 9 5 14 8 NNE 1020,3 10
01.06.2020 23:00:00 20,0 6,5 9 5 - - NE 1020,2 10
01.06.2020 22:00:00 20,6 6,4 13 7 22 12 NNE 1020,0 10
01.06.2020 21:00:00 22,4 7,3 11 6 22 12 NNE 1019,5 10
01.06.2020 20:00:00 24,4 6,6 16 9 - - NE 1019,4 10
01.06.2020 19:00:00 25,9 6,0 11 6 25 14 ENE 1019,7 10
01.06.2020 18:00:00 26,1 6,1 11 6 25 14 ENE 1020,0 10
01.06.2020 17:00:00 25,5 7,1 5 3 - - - 1020,2 10
01.06.2020 16:00:00 25,5 7,2 13 7 32 18 NE 1020,7 10
01.06.2020 15:00:00 24,8 7,4 15 8 29 16 ENE 1021,0 10
01.06.2020 14:00:00 24,5 7,0 13 7 - - E 1021,3 10
01.06.2020 13:00:00 23,9 7,5 13 7 32 18 ENE 1021,8 10
01.06.2020 12:00:00 23,0 7,7 18 10 29 16 ENE 1022,1 10
01.06.2020 11:00:00 21,6 7,5 18 10 - - E 1022,4 10
01.06.2020 10:00:00 19,9 8,5 13 7 22 12 E 1022,7 10
01.06.2020 09:00:00 17,3 8,2 13 7 18 10 E 1022,6 10
01.06.2020 08:00:00 15,2 8,2 11 6 - - E 1022,6 10
01.06.2020 07:00:00 13,0 7,0 8 4 14 8 ENE 1022,5 10
01.06.2020 06:00:00 12,4 6,4 5 3 7 4 ENE 1022,3 10
01.06.2020 05:00:00 12,4 6,1 5 3 - - E 1022,2 10
01.06.2020 04:00:00 12,4 6,1 5 3 11 6 E 1022,3 10
01.06.2020 03:00:00 13,6 5,4 8 4 11 6 ENE 1022,3 10
01.06.2020 02:00:00 14,7 6,1 8 4 - - ENE 1022,2 10
01.06.2020 01:00:00 15,7 5,6 8 4 14 8 ENE 1022,3 10
01.06.2020 00:00:00 16,6 5,7 9 5 14 8 ENE 1022,3 10
31.05.2020 23:00:00 17,8 5,0 9 5 - - ENE 1022,0 10
31.05.2020 22:00:00 19,2 5,0 13 7 25 14 ENE 1021,7 10
31.05.2020 21:00:00 20,2 5,3 15 8 29 16 ENE 1021,2 10
31.05.2020 20:00:00 21,2 4,5 18 10 - - E 1021,0 10
31.05.2020 19:00:00 21,6 4,5 21 11 32 18 ENE 1020,8 10
31.05.2020 18:00:00 22,4 3,8 18 10 36 19 ENE 1021,0 10
31.05.2020 17:00:00 22,2 3,0 16 9 - - E 1021,4 10
31.05.2020 16:00:00 21,9 2,3 21 11 32 18 ENE 1021,7 10
31.05.2020 15:00:00 21,1 2,4 21 11 40 21 E 1021,9 10
31.05.2020 14:00:00 20,9 1,8 21 11 - - NE 1022,4 10
31.05.2020 13:00:00 20,1 2,2 18 10 36 19 ENE 1022,6 10
31.05.2020 12:00:00 20,4 4,7 21 11 40 21 ENE 1022,8 10
31.05.2020 11:00:00 19,7 4,5 22 12 - - E 1023,1 10
31.05.2020 10:00:00 18,4 5,3 21 11 25 14 ENE 1023,2 10

tt = Temperatura
td = dewpoint
ff = velocità del vento
fx = gusts
dd = direzione del vento
ppp = reduced air pressure
vv = visibility

Stazioni seguenti

WeatherPro
AMSI
MeteoEarth